Harrison, AR

2:52 PM CDT on May 25, 2017 (GMT -0500)
Boone County

Weather History for KHRO - April, 2012

Change the Weather History Date:

Wednesday, April 25, 2012

  Actual Average Record
Temperature  
Mean Temperature 77 °F 61 °F  
Max Temperature 86 °F 71 °F 88 °F (1939)
Min Temperature 67 °F 50 °F 23 °F (1910)
Degree Days  
Heating Degree Days 0 6  
Month to date heating degree days 143 216  
Since 1 July heating degree days 3058 3896  
Cooling Degree Days 12 1  
Month to date cooling degree days 45 25  
Year to date cooling degree days 101 31  
Growing Degree Days 26 (Base 50)    
Moisture  
Dew Point 58 °F    
Average Humidity 55    
Maximum Humidity 73    
Minimum Humidity 37    
Precipitation  
Precipitation T in 0.16 in 4.04 in (2011)
Month to date precipitation 1.28 3.50  
Year to date precipitation 12.54 12.49  
Snow  
Snow 0.00 in 0.00 in - ()
Month to date snowfall 0.0 0.3  
Since 1 July snowfall 2.1 11.5  
Snow Depth 0.00 in    
Sea Level Pressure  
Sea Level Pressure 29.69 in    
Wind  
Wind Speed 8 mph (SW)    
Max Wind Speed 22 mph    
Max Gust Speed 29 mph    
Visibility 10 miles    
Events      
T = Trace of Precipitation, MM = Missing Value Source: NWS Daily Summary

Daily Weather History Graph

Daily Weather History Graph

Search for Another Location

Airport or City:

Trip Planner

Search our weather history database for the weather conditions in past years. The results will help you decide how hot, cold, wet, or windy it might be!

Date:

Astronomy

Apr. 25, 2012 Rise Set
Actual Time 6:25 AM CDT 7:55 PM CDT
Civil Twilight 5:58 AM CDT 8:22 PM CDT
Nautical Twilight 5:26 AM CDT 8:55 PM CDT
Astronomical Twilight 4:51 AM CDT 9:29 PM CDT
Moon 9:15 AM CDT 11:58 PM CDT
Length of Visible Light 14h 24m
Length of Day
13h 29m
Waxing Crescent, 17% of the Moon is Illuminated
Apr 25
Waxing Crescent
Apr 29
First Quarter
May 5
Full
May 12
Last Quarter
May 20
New

Hourly Weather History & Observations

Time (CDT) Temp. Heat Index Dew Point Humidity Pressure Visibility Wind Dir Wind Speed Gust Speed Precip Events Conditions
12:53 AM 70.0 °F - 51.1 °F 51% 29.70 in 10.0 mi SW 11.5 mph 32.2 mph N/A   Clear
1:53 AM 71.1 °F - 51.1 °F 49% 29.70 in 10.0 mi SSW 10.4 mph 16.1 mph N/A   Clear
2:53 AM 70.0 °F - 52.0 °F 53% 29.73 in 10.0 mi West 10.4 mph 19.6 mph N/A   Clear
3:53 AM 68.0 °F - 53.6 °F 60% 29.78 in 10.0 mi North 5.8 mph - N/A   Partly Cloudy
4:53 AM 68.0 °F - 53.1 °F 59% 29.77 in 10.0 mi WNW 5.8 mph - 0.00 in   Scattered Clouds
5:53 AM 71.1 °F - 52.0 °F 51% 29.74 in 10.0 mi SW 8.1 mph - N/A   Partly Cloudy
6:53 AM 71.6 °F - 51.8 °F 50% 29.74 in 10.0 mi South 6.9 mph - N/A   Clear
7:53 AM 68.0 °F - 54.0 °F 61% 29.70 in 10.0 mi ESE 6.9 mph - N/A   Clear
8:53 AM 73.9 °F - 55.9 °F 53% 29.68 in 10.0 mi South 8.1 mph - N/A   Clear
9:53 AM 77.0 °F - 55.9 °F 48% 29.69 in 10.0 mi South 10.4 mph - N/A   Clear
10:53 AM 82.9 °F 82.1 °F 55.9 °F 39% 29.67 in 10.0 mi SW 6.9 mph - N/A   Clear
11:53 AM 84.0 °F 83.0 °F 55.9 °F 38% 29.65 in 10.0 mi SSW 10.4 mph 25.3 mph N/A   Clear
12:53 PM 84.0 °F 83.3 °F 57.0 °F 40% 29.65 in 10.0 mi WSW 16.1 mph 25.3 mph N/A   Clear
1:53 PM 84.2 °F 83.5 °F 57.2 °F 40% 29.68 in 10.0 mi WSW 10.4 mph 23.0 mph N/A   Clear
2:53 PM 84.9 °F 84.4 °F 59.0 °F 41% 29.64 in 10.0 mi SW 12.7 mph 18.4 mph N/A   Clear
3:53 PM 84.0 °F 84.5 °F 62.1 °F 47% 29.63 in 10.0 mi SSW 10.4 mph 19.6 mph N/A   Clear
4:53 PM 82.9 °F 83.7 °F 62.1 °F 49% 29.64 in 10.0 mi SW 12.7 mph 19.6 mph N/A   Clear
5:53 PM 82.0 °F 83.1 °F 63.0 °F 52% 29.65 in 10.0 mi WSW 8.1 mph - N/A   Clear
6:53 PM 79.0 °F - 62.1 °F 56% 29.66 in 10.0 mi SW 5.8 mph - N/A   Clear
7:53 PM 77.0 °F - 63.0 °F 62% 29.68 in 10.0 mi SW 3.5 mph - N/A   Clear
8:53 PM 75.9 °F - 64.0 °F 67% 29.70 in 10.0 mi West 5.8 mph - N/A   Clear
9:53 PM 73.9 °F - 64.0 °F 71% 29.73 in 10.0 mi Calm Calm - N/A   Clear
10:53 PM 75.0 °F - 63.0 °F 66% 29.72 in 10.0 mi WSW 6.9 mph - N/A   Clear
11:53 PM 75.0 °F - 63.0 °F 66% 29.73 in 8.0 mi Variable 6.9 mph - N/A   Clear